{"data":{"norad_id":63710,"intl_designator":"2025-087P","name":"STARLINK-33920","alt_names":[],"object_type":"PAYLOAD","status":"ACTIVE","operator":null,"country":"US","launch_date":"2025-04-28","launch_site_code":"AFWTR","launch_vehicle":null,"mission":null,"orbit_class":"UNKNOWN","rcs_meters":null,"size_class":null,"mass_kg":null,"dimensions":null,"purposes":["comms"],"wikipedia_slug":null,"has_3d_model":false,"image_url":null,"decayed_at":null,"tle_current":{"epoch":"2026-05-24T22:35:16.931616Z","epoch_age_seconds":70389,"freshness":"FRESH","line1":"1 63710U 25087P   26144.94116819  .00017733  00000+0  58115-3 0  9998","line2":"2 63710  53.1600 225.4052 0001594  95.5699 264.5484 15.31737264 60879","mean_motion":15.31737264,"eccentricity":0.0001594,"inclination_deg":53.16,"raan_deg":225.4052,"arg_perigee_deg":95.5699,"mean_anomaly_deg":264.5484,"bstar":0.00058115,"rev_number":6087,"period_min":94.010900814645,"perigee_km":469.53722214579,"apogee_km":471.72060871963,"semimajor_km":6848.7659154327,"source":"CELESTRAK","updated_at":"2026-05-25T13:38:20.098914Z"}}}